Change the Weather History Date:

Sunday, November 13, 2011

  Actual Average Record
Temperature  
Mean Temperature 42 °F 34 °F  
Max Temperature 60 °F 44 °F 65 °F (1964)
Min Temperature 24 °F 24 °F 3 °F (2004)
Degree Days  
Heating Degree Days 23 31  
Month to date heating degree days 349 381  
Since 1 July heating degree days 1336 1673  
Cooling Degree Days 0 0  
Month to date cooling degree days 0  
Year to date cooling degree days 114  
Moisture  
Dew Point 28 °F    
Average Humidity 62    
Maximum Humidity 100    
Minimum Humidity 23    
Precipitation  
Precipitation 0.00 in 0.10 in 0.98 in (1992)
Month to date precipitation 0.52 1.53  
Year to date precipitation 39.80 33.41  
Sea Level Pressure  
Sea Level Pressure 29.88 in    
Wind  
Wind Speed 8 mph (SW)    
Max Wind Speed 25 mph    
Max Gust Speed 32 mph    
Visibility 10 miles    
Events      
T = Trace of Precipitation, MM = Missing Value Source: NWS Daily Summary

Daily Weather History Graph

Daily Weather History Graph

Search for Another Location

Airport or City:

Trip Planner

Search our weather history database for the weather conditions in past years. The results will help you decide how hot, cold, wet, or windy it might be!

Date:

Astronomy

Nov. 13, 2011 Rise Set
Actual Time 6:49 AM EST 4:31 PM EST
Civil Twilight 6:18 AM EST 5:03 PM EST
Nautical Twilight 5:43 AM EST 5:38 PM EST
Astronomical Twilight 5:09 AM EST 6:12 PM EST
Moon 6:34 PM EST (11/13) 9:24 AM EST (11/13)
Length of Visible Light 10h 44m
Length of Day
9h 42m
Waning Gibbous, 93% of the Moon is Illuminated
Nov 13
Waning Gibbous
Nov 18
Last Quarter
Nov 25
New
Dec 2
First Quarter
Dec 10
Full

Hourly Weather History & Observations

Time (EST) Temp. Windchill Dew Point Humidity Pressure Visibility Wind Dir Wind Speed Gust Speed Precip Events Conditions
12:51 AM 30.9 °F 25.2 °F 28.0 °F 89% 29.98 in 10.0 mi WSW 5.8 mph - N/A   Clear
1:51 AM 30.0 °F 26.5 °F 27.0 °F 88% 29.99 in 10.0 mi WSW 3.5 mph - N/A   Clear
2:51 AM 27.0 °F - 26.1 °F 96% 30.01 in 10.0 mi Calm Calm - N/A   Clear
3:51 AM 28.0 °F - 26.1 °F 92% 30.01 in 10.0 mi Calm Calm - N/A   Clear
4:51 AM 26.1 °F - 24.1 °F 92% 30.01 in 10.0 mi Calm Calm - N/A   Clear
5:51 AM 25.0 °F - 23.0 °F 92% 30.01 in 10.0 mi Calm Calm - N/A   Clear
6:51 AM 26.1 °F - 24.1 °F 92% 30.01 in 10.0 mi Calm Calm - N/A   Clear
7:51 AM 28.9 °F - 27.0 °F 92% 29.99 in 10.0 mi Calm Calm - N/A   Clear
8:51 AM 36.0 °F - 34.0 °F 93% 29.98 in 10.0 mi Calm Calm - N/A   Clear
9:51 AM 53.1 °F - 30.9 °F 43% 29.93 in 10.0 mi SSW 10.4 mph - N/A   Clear
10:51 AM 53.1 °F - 28.9 °F 40% 29.90 in 10.0 mi SW 8.1 mph - N/A   Clear
11:51 AM 55.0 °F - 27.0 °F 34% 29.85 in 10.0 mi SSW 21.9 mph - N/A   Clear
12:51 PM 57.0 °F - 26.1 °F 30% 29.82 in 10.0 mi SSW 13.8 mph 24.2 mph N/A   Clear
1:51 PM 60.1 °F - 23.0 °F 24% 29.79 in 10.0 mi SSW 13.8 mph 23.0 mph N/A   Clear
2:51 PM 57.2 °F - 23.0 °F 27% 29.77 in 10.0 mi SSW 23.0 mph 32.2 mph N/A   Mostly Cloudy
3:51 PM 55.4 °F - 26.6 °F 33% 29.75 in 10.0 mi SSW 13.8 mph 21.9 mph N/A   Scattered Clouds
4:51 PM 55.0 °F - 28.9 °F 37% 29.79 in 10.0 mi SW 9.2 mph - N/A   Overcast
5:51 PM 54.0 °F - 28.9 °F 38% 29.80 in 10.0 mi SW 10.4 mph - N/A   Overcast
6:51 PM 53.1 °F - 30.9 °F 43% 29.81 in 10.0 mi SSW 10.4 mph - N/A   Overcast
7:51 PM 51.1 °F - 30.9 °F 46% 29.80 in 10.0 mi SSW 8.1 mph - N/A   Overcast
8:51 PM 51.1 °F - 30.9 °F 46% 29.79 in 10.0 mi SW 8.1 mph - N/A   Overcast
9:51 PM 51.1 °F - 30.9 °F 46% 29.77 in 10.0 mi SW 9.2 mph - N/A   Overcast
10:51 PM 51.1 °F - 32.0 °F 48% 29.74 in 10.0 mi SW 6.9 mph - N/A   Scattered Clouds
11:51 PM 52.0 °F - 33.1 °F 49% 29.73 in 10.0 mi SSW 15.0 mph - N/A   Overcast